GFSSE_500_spd_024.txt.gz
Wind_Speed
16 18 17 19 19 16 15 19 24 27 28 27 25 23 24 24 24 22 23 23 23 24 23 23 23 22 23 25 25 27 30 32 34 33 31 31 29 27 26 26 25 23 21
16 17 19 21 18 18 19 20 23 26 27 27 24 21 22 23 24 24 25 25 27 26 27 28 28 28 27 26 27 27 27 31 33 35 34 33 31 30 27 26 28 27 23
18 18 22 21 18 18 17 21 23 24 24 26 25 24 24 25 26 26 26 27 28 29 31 33 33 32 33 32 29 28 28 28 31 32 33 34 31 30 30 28 29 31 29
24 22 24 19 20 19 18 20 22 24 25 28 27 25 24 24 24 25 26 28 30 32 34 36 37 34 31 29 27 28 28 28 28 28 30 31 31 30 30 31 30 30 32
27 24 25 20 17 17 18 21 24 26 30 31 31 29 28 25 24 23 24 28 31 32 33 36 37 34 27 23 21 23 24 28 28 28 27 28 30 29 30 32 33 31 31
26 24 26 21 18 17 20 27 34 33 33 35 33 31 30 27 25 25 25 27 29 30 32 33 34 32 28 25 23 22 23 24 27 29 28 26 26 28 30 32 33 33 31
26 28 29 22 22 19 19 29 36 35 36 36 36 34 32 30 27 26 29 30 30 29 30 30 30 29 28 26 24 23 22 22 24 28 29 28 28 28 29 32 32 33 32
28 26 26 24 23 20 21 29 38 37 38 37 36 36 35 32 30 30 30 32 32 30 28 28 28 27 25 24 24 23 24 23 23 25 28 31 29 29 31 32 32 33 32
29 27 23 20 22 24 27 35 37 37 38 38 37 35 36 34 33 32 33 33 34 32 30 26 25 25 24 23 23 23 24 24 26 26 27 27 33 32 32 33 33 32 33
34 31 26 24 29 34 35 34 37 37 37 39 39 35 35 34 33 33 34 34 34 33 31 27 23 24 25 24 24 25 27 26 26 29 28 29 28 34 34 33 34 32 31
40 38 31 30 35 40 43 44 43 46 44 37 33 34 33 32 33 34 35 36 36 33 32 28 26 25 25 27 27 27 28 26 27 27 30 30 29 28 35 34 34 34 33
41 38 37 39 42 44 47 49 46 47 48 38 33 34 32 30 32 35 36 37 37 34 32 29 27 27 27 27 28 26 27 26 27 26 27 29 28 28 30 36 33 34 33
46 44 39 41 49 50 53 53 49 48 48 35 32 33 32 33 34 36 37 39 40 36 32 30 27 29 31 29 28 27 27 24 24 24 25 27 29 30 31 33 34 33 34
46 43 43 48 50 56 56 54 55 51 44 30 29 32 33 35 38 38 37 38 38 36 32 32 29 33 33 32 31 28 26 26 24 24 24 24 27 29 30 32 33 32 32
44 40 44 52 54 55 55 55 52 50 37 29 30 29 35 35 38 37 38 35 35 34 33 31 31 33 34 34 33 32 28 27 26 25 24 25 25 26 28 29 30 31 32
41 43 50 52 53 56 57 55 47 38 31 31 32 31 35 38 38 38 37 33 35 35 35 36 35 38 36 35 33 34 31 29 26 27 26 25 26 28 29 28 29 30 30
41 47 50 49 55 56 52 48 41 38 33 33 34 36 40 31 37 37 36 35 35 37 36 39 36 37 37 35 35 35 34 32 28 26 25 23 23 27 27 24 25 26 26
46 48 49 54 58 52 49 43 41 41 37 35 28 35 35 33 37 34 36 36 38 39 37 36 38 37 36 36 36 31 29 29 28 26 24 22 18 24 24 22 23 26 26
48 50 51 53 52 48 45 42 44 42 39 36 29 28 36 37 38 34 37 37 36 42 43 35 36 36 37 37 32 27 26 28 27 27 27 25 22 22 24 24 21 23 26
52 53 48 47 46 47 43 47 47 45 41 39 30 31 36 35 35 33 36 35 36 39 37 38 36 35 36 34 30 28 28 27 28 25 27 29 24 23 23 24 24 24 26
48 42 41 45 47 47 47 49 47 43 36 33 28 33 34 34 33 35 33 35 33 33 35 34 33 35 33 31 30 30 29 28 30 28 27 28 26 25 25 23 25 25 27
42 43 45 45 45 48 47 42 38 32 31 31 30 32 32 31 35 34 35 33 36 37 32 31 32 33 31 30 29 31 29 29 29 29 27 26 27 25 25 24 25 25 25
40 41 41 42 45 44 40 33 33 30 31 31 27 29 30 30 32 36 31 35 37 31 30 31 31 30 29 29 30 32 28 27 26 25 23 25 25 23 25 25 23 23 22
34 37 38 39 39 37 36 33 28 26 24 26 28 28 26 32 32 29 33 35 30 28 30 29 27 27 26 27 29 26 26 24 20 21 25 24 26 24 22 22 22 23 22
31 34 35 33 33 34 30 23 22 22 21 24 24 23 28 31 28 29 32 27 27 29 29 24 25 24 23 26 22 22 20 15 17 22 21 24 26 21 23 21 22 23 23
29 29 28 29 30 27 23 21 22 20 21 21 22 25 27 27 28 29 25 25 27 27 24 22 23 20 25 23 17 17 11 7 9 15 21 12 26 21 21 20 21 21 21

GFSSE_500_spd_030.txt.gz
Wind_Speed
9 11 14 15 18 19 20 19 19 18 20 24 26 26 24 21 22 20 20 18 17 17 17 16 17 19 20 23 25 26 24 25 26 27 27 28 30 30 28 27 25 24 25
12 12 12 14 18 20 21 22 23 23 20 25 28 28 26 24 24 25 23 23 23 22 22 21 20 20 20 21 22 23 24 25 24 25 27 27 29 30 31 29 27 27 25
13 14 15 16 15 18 22 23 23 23 20 27 33 32 31 29 26 25 23 23 24 26 26 25 24 23 22 23 21 21 21 21 21 20 22 25 27 29 31 31 29 29 27
16 15 16 23 20 17 23 22 22 23 23 28 34 33 32 33 32 28 25 24 26 28 28 29 28 26 26 25 24 21 20 20 22 22 20 22 24 27 28 31 31 30 29
20 21 25 25 20 19 23 24 23 23 24 29 35 35 33 33 34 33 30 28 26 27 29 29 30 30 30 29 28 25 22 21 22 22 21 20 22 25 27 29 31 30 29
23 27 25 25 20 19 26 27 25 23 24 29 35 36 36 35 34 33 31 30 30 29 29 30 30 31 31 32 30 27 26 24 22 21 21 21 21 24 28 30 30 31 29
22 23 25 22 25 21 27 26 24 23 25 29 35 37 39 39 38 34 32 31 29 27 27 26 26 27 28 30 30 29 28 26 23 22 21 21 22 23 26 31 31 31 30
24 31 23 24 29 29 28 27 24 25 28 34 35 36 39 40 38 36 33 32 31 29 27 25 25 27 26 28 29 29 29 27 24 23 24 23 22 24 25 27 32 32 31
30 28 27 26 24 24 27 27 28 28 30 33 35 35 38 38 39 36 33 32 31 31 30 28 29 28 29 29 28 30 30 29 27 25 26 26 26 26 26 27 29 33 32
36 33 28 27 28 28 32 34 32 31 34 34 35 34 37 38 38 34 30 30 31 32 33 32 32 31 31 30 29 29 28 29 28 26 24 26 26 27 26 28 27 34 33
31 27 29 30 32 33 36 38 36 37 36 36 35 36 39 41 40 37 33 31 31 33 35 35 34 33 31 28 27 27 27 25 26 26 25 25 26 26 28 28 28 28 36
33 34 38 38 36 37 37 38 38 38 39 37 39 39 40 40 40 37 33 33 29 29 33 37 39 35 32 28 24 26 27 27 26 28 28 29 26 26 26 26 28 28 31
33 35 37 39 40 41 37 40 41 40 40 41 40 39 40 39 41 36 31 35 35 40 40 33 43 37 30 31 27 28 29 30 30 30 30 30 29 26 26 24 25 27 29
37 38 39 42 41 39 41 42 41 41 42 43 42 41 41 38 41 35 32 34 38 32 37 40 39 43 35 32 31 31 32 31 31 32 31 32 31 28 26 24 23 26 27
37 38 42 45 43 44 42 44 43 44 44 43 45 43 41 39 37 33 36 36 42 39 41 43 42 39 29 34 29 34 34 36 32 32 31 29 29 29 29 24 23 24 28
41 40 42 45 48 46 46 45 47 47 46 45 45 43 42 39 36 34 38 35 37 36 44 36 39 39 34 31 31 28 29 35 33 32 29 27 25 26 30 27 24 24 26
43 44 46 46 49 49 48 47 50 52 49 48 46 44 43 39 38 37 37 35 37 38 42 42 38 38 33 32 33 29 27 31 33 30 28 27 24 24 27 29 27 24 24
46 47 49 50 51 50 50 50 51 53 50 50 46 43 40 41 39 35 36 38 38 37 42 41 38 35 33 33 34 33 33 33 32 30 27 27 24 23 26 27 28 30 27
49 49 52 54 56 53 54 51 49 52 52 51 46 41 42 43 39 40 41 38 38 40 42 42 36 35 33 33 32 33 34 35 32 29 28 28 29 24 25 24 24 23 22
52 53 53 53 54 54 56 52 51 53 50 46 44 43 44 43 43 44 43 41 40 41 42 38 35 33 37 37 34 34 35 35 31 30 30 28 30 26 24 25 22 22 22
53 54 52 50 51 53 51 51 51 49 45 45 42 42 42 46 48 47 41 38 40 40 41 36 35 35 35 36 36 37 36 31 31 30 30 30 31 28 24 25 24 26 24
52 52 50 49 46 48 51 50 46 44 45 43 43 43 44 42 43 42 40 38 41 40 35 36 29 32 38 36 38 36 32 30 30 33 33 32 30 27 24 25 25 25 23
49 49 48 45 45 45 43 41 42 42 40 41 42 41 40 40 40 38 38 33 34 34 34 31 35 36 37 35 36 33 30 29 33 31 29 28 28 27 24 25 25 25 22
47 46 44 44 42 39 37 33 36 35 37 40 41 37 35 33 30 29 27 29 31 31 31 34 36 39 36 37 32 30 28 31 30 28 28 25 26 24 25 25 25 27 27
45 43 41 37 36 34 28 29 32 35 37 39 37 30 28 28 28 26 26 27 29 30 33 37 39 34 35 33 29 28 27 30 27 25 22 21 21 20 22 25 26 26 28
41 39 33 32 29 28 27 29 33 36 35 34 29 27 26 27 25 26 25 28 29 32 35 36 34 34 32 27 26 25 28 24 25 19 17 14 16 19 22 25 25 23 21

GFSSE_500_spd_033.txt.gz
Wind_Speed
8 10 9 10 11 12 13 14 16 17 18 17 21 25 24 22 21 20 18 17 17 17 19 20 22 23 23 22 22 22 23 22 21 21 21 24 27 28 28 29 26 25 24
12 12 13 13 16 16 16 18 20 18 20 21 23 27 27 23 22 24 25 23 22 22 23 23 23 23 22 21 21 22 23 24 23 22 18 18 20 25 27 29 28 28 27
9 11 12 14 21 20 21 22 24 23 22 22 23 28 29 24 22 23 25 27 27 27 26 25 24 22 22 20 20 21 21 21 21 22 20 19 18 20 23 27 28 29 28
10 11 15 19 21 21 18 21 25 27 25 24 25 28 32 30 29 29 29 29 28 27 29 27 27 27 25 25 22 22 21 19 19 20 21 21 18 19 21 24 26 27 28
13 14 16 19 21 21 21 20 24 26 26 25 26 30 35 33 33 32 32 31 30 29 28 28 29 27 27 25 24 24 23 20 19 20 20 21 21 20 20 23 25 26 28
14 14 18 25 20 18 21 23 27 29 27 28 30 34 38 36 36 36 35 33 31 30 30 28 27 27 25 27 26 24 25 24 23 21 20 20 20 22 20 21 24 27 26
14 18 19 20 17 24 24 25 27 28 29 32 35 36 37 35 36 37 36 35 33 33 31 29 28 28 28 28 29 29 27 25 25 24 22 20 20 21 22 23 22 26 28
19 20 24 28 22 21 23 22 22 25 28 33 36 38 37 36 36 36 36 34 32 32 33 32 30 31 31 30 29 29 26 25 25 26 25 23 22 22 23 24 24 24 27
22 23 25 23 17 18 20 22 25 31 31 34 35 36 35 36 35 36 34 34 32 30 28 30 29 30 30 29 29 29 27 25 25 27 25 25 25 24 24 26 27 27 26
25 26 26 23 20 22 26 27 29 31 33 35 34 35 35 36 35 34 35 33 29 30 27 30 28 30 32 32 30 26 27 24 24 25 24 24 23 22 23 25 27 28 28
30 32 31 27 28 29 30 32 34 35 33 34 32 33 35 37 36 36 36 35 30 31 31 32 37 37 35 35 38 28 25 26 24 23 24 24 25 27 26 24 26 28 30
35 35 33 30 34 33 35 35 38 38 38 37 34 30 34 37 36 37 38 36 33 32 31 36 30 34 38 39 39 34 26 26 27 29 27 27 27 28 28 27 25 26 28
34 35 35 34 34 35 36 39 38 41 39 38 39 35 35 35 37 36 39 38 33 36 33 35 41 38 41 41 44 39 28 25 29 31 29 31 29 30 29 28 27 25 26
39 40 41 33 29 34 39 41 41 41 40 40 40 37 39 38 38 38 38 39 33 35 35 36 38 39 35 38 38 30 25 26 34 35 32 28 30 29 28 27 29 25 24
42 42 42 44 40 36 38 42 43 44 44 43 43 40 40 42 40 40 37 37 36 36 36 39 36 38 39 41 37 32 26 29 29 29 34 28 28 28 26 26 28 27 24
46 45 43 44 41 39 41 42 44 46 48 46 45 45 42 39 41 38 35 33 38 37 36 39 39 41 42 40 38 31 31 30 29 29 30 28 25 27 25 26 26 26 25
50 46 44 41 45 43 45 45 46 50 50 49 47 46 42 41 42 37 35 34 38 38 37 41 39 43 44 40 35 37 30 33 32 31 30 30 26 24 24 25 24 24 26
49 49 47 43 45 46 48 50 51 54 53 50 50 48 45 43 40 36 37 39 39 40 42 43 45 41 42 39 35 33 33 34 34 33 32 29 27 25 24 25 22 23 25
51 51 46 44 46 51 53 54 56 55 53 51 51 47 47 44 37 36 38 41 41 41 44 46 42 43 43 39 35 34 34 35 35 35 31 28 28 28 24 24 22 21 22
53 50 47 47 51 54 57 55 55 53 51 50 47 47 47 42 38 37 39 41 43 43 44 43 42 43 46 44 37 32 34 35 36 34 30 30 28 26 25 26 22 20 21
53 55 52 53 54 57 54 55 53 51 49 47 46 46 45 41 37 38 38 44 46 45 40 41 42 43 42 28 30 33 37 36 33 33 30 29 30 27 26 27 21 21 22
62 65 61 61 58 57 53 51 49 47 41 41 43 43 40 38 37 40 40 41 42 42 41 36 38 39 39 33 32 38 37 38 32 29 29 32 32 29 27 23 22 25 27
69 62 65 64 62 54 51 47 45 42 39 40 39 37 36 36 38 38 36 37 37 36 36 36 36 37 35 34 36 37 37 35 33 29 31 30 29 26 23 21 22 26 26
64 66 64 58 53 51 45 45 41 38 38 38 35 34 34 35 37 33 32 33 32 32 30 31 33 35 36 37 37 36 35 33 33 29 30 28 27 24 21 21 23 21 21
51 54 51 48 48 44 44 39 39 37 38 33 33 31 33 36 34 31 30 30 29 29 28 31 34 36 35 37 36 34 31 31 28 30 28 25 22 21 18 18 21 22 23
43 43 43 43 42 42 39 37 37 33 32 29 31 31 33 33 31 28 27 28 30 28 30 31 33 35 35 34 35 31 29 28 28 25 24 20 18 14 16 18 20 23 21

GFSSE_500_spd_036.txt.gz
Wind_Speed
4 8 10 11 9 10 10 11 13 16 14 12 14 18 21 22 19 18 18 19 19 19 20 21 22 23 24 24 24 22 21 20 21 21 21 21 19 20 23 24 24 25 26
7 9 8 11 11 13 16 18 17 19 20 16 17 21 22 23 21 20 22 23 22 21 20 20 21 22 22 22 23 22 22 22 22 22 22 21 20 19 21 20 22 25 26
5 8 8 9 10 14 14 13 15 17 20 21 20 23 25 26 26 24 23 24 24 22 23 24 24 24 23 21 21 21 21 20 21 20 21 21 22 20 21 20 20 22 24
9 9 9 9 13 13 12 14 14 17 21 24 24 25 28 29 30 30 28 28 27 25 23 23 22 24 24 23 20 18 18 19 20 19 20 21 19 22 20 21 20 20 21
12 12 10 13 15 15 16 17 17 19 23 23 26 27 29 32 32 32 32 31 30 29 26 25 25 26 25 22 21 21 21 22 21 18 18 19 18 23 20 21 21 21 20
19 20 13 14 19 17 17 16 19 20 22 24 28 27 32 34 35 36 35 33 30 28 27 27 27 25 25 26 24 26 25 26 24 19 17 17 19 19 19 19 21 23 21
23 17 14 16 22 18 15 16 17 18 23 28 31 32 33 34 34 36 35 34 31 30 30 29 30 29 29 27 27 28 29 28 25 22 19 19 17 19 20 20 20 22 22
23 18 17 16 18 14 12 14 17 19 24 28 32 34 35 34 32 35 35 34 32 31 30 28 30 27 28 29 27 28 32 30 27 25 21 21 18 18 21 22 21 22 23
23 20 21 20 17 17 15 20 21 23 26 30 31 32 33 33 32 35 35 35 32 29 27 28 27 28 27 31 27 31 35 32 30 24 23 21 20 18 19 20 21 23 25
25 24 25 24 23 24 21 24 26 27 30 32 32 32 31 30 30 34 36 35 33 31 27 28 27 27 29 33 29 33 34 29 32 29 23 23 20 20 19 20 20 22 25
33 27 26 27 26 26 26 29 29 29 32 35 35 33 31 30 29 31 33 36 36 32 28 27 27 30 32 33 35 30 36 38 31 32 27 26 23 21 21 22 24 24 23
36 34 30 27 29 28 29 29 29 32 33 35 37 36 34 32 31 33 33 36 38 32 30 28 29 31 30 32 30 34 31 34 29 26 26 27 27 24 23 24 23 23 23
32 37 35 19 27 31 33 31 32 33 33 35 36 37 38 36 34 32 34 36 39 34 29 30 32 34 31 32 36 38 37 33 32 30 24 28 30 27 26 24 22 22 23
41 26 25 34 37 36 37 34 33 30 34 35 37 38 38 37 34 33 37 37 37 33 31 31 32 35 33 34 38 38 37 32 32 28 25 24 25 27 25 23 23 22 22
42 43 45 46 41 39 43 40 36 33 34 37 39 42 42 40 36 35 40 40 36 31 30 32 33 37 34 35 35 36 38 34 32 29 29 28 26 27 27 24 23 22 21
50 48 43 48 50 40 44 42 38 39 42 42 41 45 46 43 36 36 39 40 36 28 30 31 33 40 43 43 39 32 34 30 30 30 30 29 26 25 26 24 22 22 22
47 48 48 51 53 44 40 40 41 42 45 48 49 50 49 43 36 37 39 39 34 33 32 32 34 38 44 42 40 38 34 32 30 32 30 30 29 25 25 24 23 22 22
53 55 56 57 49 47 44 41 39 45 49 50 50 52 50 43 35 38 39 38 35 35 36 37 37 40 45 48 41 45 41 37 31 31 30 31 29 24 24 26 24 22 20
60 56 58 49 46 50 48 45 40 44 49 50 52 49 48 43 36 37 39 36 35 35 36 39 40 42 42 42 38 38 41 31 28 31 30 30 27 27 24 25 25 22 23
63 62 55 45 46 46 52 48 44 47 49 52 52 46 47 41 36 36 37 35 36 37 37 39 41 41 39 37 37 37 32 28 31 30 31 30 27 26 24 26 24 23 21
68 70 50 46 45 46 54 50 50 52 55 55 51 42 43 40 35 35 34 35 35 36 34 36 38 38 39 39 37 36 31 30 35 30 31 31 28 27 30 28 24 26 22
70 67 50 50 50 50 55 54 55 58 59 56 50 44 42 40 34 33 31 32 33 33 31 33 34 36 37 36 36 35 33 36 33 28 28 30 28 30 28 26 25 25 26
73 65 56 59 59 57 58 59 56 59 60 54 52 43 40 39 35 31 30 31 32 30 30 30 31 33 34 34 34 34 35 36 35 31 28 29 29 29 26 24 27 22 18
62 64 60 61 62 62 62 59 57 57 53 51 49 40 40 36 30 29 29 31 30 29 29 28 29 31 34 32 34 32 36 36 36 32 31 28 30 27 23 19 25 24 14
52 54 55 54 50 50 54 54 55 51 49 48 44 41 32 30 28 30 28 30 29 28 29 28 31 31 32 32 33 33 31 34 34 33 30 30 24 20 21 20 19 17 15
51 51 49 45 45 43 42 44 44 46 46 43 39 32 31 30 29 26 28 28 28 28 30 30 30 30 28 29 32 34 29 28 29 29 27 22 19 19 18 17 16 18 18